DUMSAT

Satellite information

Favourite Embed

Satellite Type and Status

PAYLOADIN ORBIT

Key statistics

Satellite DUMSAT at a glance.

Uptime

9336

Days in orbit

Revolutions

≈ 15.0

Per day

Orbit

LEO

Low Earth Orbit

Inclination

64.9

Latest

Satellite identification and parameters

Extended collection of information and parameters for DUMSAT.

Object identification

Identified? True

Debris? False

Object name: DUMSAT

International designator: 2000-009A

Object number (NORAD): 26086

Object ID (CCSDS): 26086

Country: COMMONWEALTH OF INDEPENDENT STATES (CIS)

Current information (Y/N): Y

RCS size: LARGE

Orbital parameters

Period: 96.198 minutes

Inclination: 64.8503 deg

SMA: 6954.571 km

Apoapsis: 593.248 km

Periapsis: 559.623 km

RAAN: 257.9687 deg

Eccentricy: 0.00241743

Argument of periapsis: 272.6994 deg

Mean anomaly: 87.1354 deg

Mean motion: 14.96915503 rev/day

Mean motion (dot): 0.00000286 rev/day2

B* drag term: 0.00003895276 1/REarth

Two-line elements (TLE)

Creation date: Aug. 30, 2025, 3:38 a.m.

Reference frame: TEME

Reference center: EARTH

Epoch: Aug. 29, 2025, 6:33 p.m. UTC

TLE line 0: 0 DUMSAT

TLE line 1: 1 26086U 00009A 25241.77334626 .00000286 00000-0 38953-4 0 9991

TLE line 2: 2 26086 64.8503 257.9687 0024174 272.6994 87.1354 14.96915503394615

Live tracking on map

Real-time ground track for satellite DUMSAT.

In-orbit conjunctions

A list of the most updated potential collisions computed for object DUMSAT.

Target Orbit TCA Probability of collision Miss distance Type
CZ-6A DEB LEO 2024-10-29 23:17:26 0.0004019174 344.0 (m) DEBRIS
FENGYUN 1C DEB SSO 2024-08-25 20:10:42 0.0001464491 784.0 (m) DEBRIS

Associated space launch

IRDT (Inflatable Re-Entry and Descent Technology) is a new technology to return payloads from orbit without a heavy heatshield and parachute system. A inflatable cone provides protection during reentry and a second inflatable extension of the cone reduces the speed further for a safe landing.

DUMSAT was lifted into orbit during the mission ‘Soyuz-U-PVB | IRDT 1’, on board a Soyuz-U-PVB space rocket.

The launch took place on Feb. 8, 2000, 11:20 p.m. from 31/6.

For more information about the launch, click the button.

Launch to space Soyuz-U-PVB | IRDT 1
Soyuz-U-PVB | IRDT 1

Agency: N/A

Status: Launch Successful

Launch date: Feb. 8, 2000, 11:20 p.m. UTC

Rocket: Soyuz-U-PVB

Launch pad: 31/6

Location: Baikonur Cosmodrome, Republic of Kazakhstan

...

Latest news about this satellite

There are no fresh news available about this satellite. Check back as we update our databases every day.


Newsletter sign-up

Weekly statistics, charts and insights to help you stay on top of the space industry.